Wind_Speed
8 8 7 6 5 4 2 2 4 5 7 9 10 11 11 11 11 11 12 12 11 11 12 12 13 13 12 11 11 11 11 12 12 11 11 11 10 10 11 11 11 12 12 12 12 12 12 11 11
8 8 8 6 5 4 3 2 4 6 8 10 10 11 11 11 11 11 12 12 12 12 13 13 13 13 12 12 11 11 11 11 12 11 11 11 11 11 11 12 12 12 13 13 13 13 13 13 12
10 9 8 6 6 5 4 3 5 6 9 11 11 11 12 12 12 12 13 13 13 13 14 14 14 14 14 13 12 12 11 11 12 12 12 12 12 12 13 14 14 14 14 14 14 14 14 14 14
10 10 8 7 6 4 4 5 6 8 9 11 12 12 13 13 12 12 13 14 14 15 15 15 15 14 14 13 13 13 12 12 12 12 12 13 12 12 13 14 14 15 14 14 15 15 15 14 14
10 10 9 7 4 3 4 6 7 8 9 12 12 12 13 13 13 13 13 14 15 16 15 14 14 14 13 13 13 13 13 12 12 12 13 13 14 14 14 15 15 15 16 16 16 16 16 15 15
11 10 9 7 4 3 5 7 9 10 11 12 13 13 14 14 13 14 14 15 16 16 15 15 15 14 13 13 13 13 13 13 13 13 13 14 14 14 15 15 16 16 17 17 17 17 17 16 16
11 10 9 6 3 3 5 8 10 12 12 13 13 14 14 15 14 14 15 15 16 16 16 16 15 14 14 14 14 14 13 13 14 13 13 14 14 15 15 16 16 17 17 18 18 18 18 17 17
12 11 8 6 4 5 7 9 10 12 12 13 14 15 14 15 15 15 15 16 15 16 16 16 15 15 14 14 15 15 14 14 14 14 14 14 14 15 15 16 17 17 18 18 19 19 19 19 19
12 10 8 6 6 7 7 9 10 12 13 14 15 15 15 15 15 16 16 16 15 15 15 15 15 15 15 14 14 14 15 14 14 15 15 15 15 15 16 17 17 18 18 19 19 20 20 20 20
11 9 7 6 6 8 7 7 10 11 12 13 14 15 16 16 16 16 16 15 15 14 14 14 14 15 14 13 13 14 14 15 15 15 15 16 16 16 17 16 17 18 19 19 20 21 21 21 20
11 9 7 7 8 8 7 7 9 10 11 13 14 14 15 16 17 16 15 14 14 14 13 14 14 14 13 13 13 14 15 15 15 15 15 16 16 17 17 17 18 19 20 21 22 22 22 22 22
11 8 8 7 7 6 6 8 9 10 11 13 13 14 16 15 15 15 14 14 14 14 14 14 14 14 13 13 14 15 15 15 15 16 16 16 16 16 16 17 18 19 21 22 22 23 23 24 23
10 7 7 5 6 6 6 8 10 10 11 13 14 15 15 15 15 14 13 13 14 14 16 15 15 15 14 14 15 15 16 16 15 15 16 16 17 17 17 17 18 19 20 22 22 23 23 24 24
10 8 7 6 6 6 6 7 9 10 11 13 15 16 17 16 15 14 14 13 13 15 16 16 16 15 15 16 16 16 16 16 16 16 16 17 17 17 18 18 18 18 19 21 22 24 24 25 26
10 8 7 6 6 6 6 7 8 10 12 13 14 15 16 15 15 15 14 14 14 14 15 15 16 15 16 16 15 14 15 15 15 15 16 17 17 17 18 18 18 18 19 20 22 23 24 25 26
9 9 8 7 6 6 7 8 9 11 13 13 14 15 15 15 15 15 15 15 15 16 16 15 15 14 15 14 14 14 14 15 15 16 17 17 18 18 18 19 18 18 19 20 21 23 24 25 26
7 7 8 7 7 8 8 8 9 11 12 13 14 14 15 15 15 15 15 16 16 16 16 15 14 14 15 15 15 15 15 16 16 16 17 18 18 18 19 20 19 19 19 20 21 22 23 24 25
7 7 8 9 9 9 9 9 10 10 12 13 14 15 15 15 15 16 16 16 17 16 15 14 14 16 16 16 15 15 15 16 16 16 17 19 18 19 19 20 19 19 19 20 21 22 23 24 24
7 8 9 10 10 11 10 10 10 10 12 13 14 14 15 16 16 17 18 17 16 16 15 15 15 16 17 17 16 16 16 16 16 17 17 18 19 20 20 19 19 19 19 20 21 21 22 22 22
7 9 10 10 10 12 12 12 12 11 11 12 13 14 15 16 16 17 17 16 16 16 16 15 16 17 17 17 17 17 17 16 17 17 17 19 20 20 19 19 20 20 20 20 21 22 22 22 22
6 8 9 10 11 12 13 12 11 10 11 12 13 14 15 16 16 16 16 17 16 16 15 16 17 18 18 18 18 17 17 18 18 19 19 19 19 18 19 19 20 20 21 21 21 22 22 22 23
7 8 9 10 12 13 13 13 12 12 12 13 13 13 15 16 16 16 17 16 16 17 16 16 17 18 18 19 19 18 18 19 19 19 19 18 17 18 18 19 19 19 20 20 21 21 22 23 23
8 10 10 11 13 14 14 15 13 13 12 13 13 14 15 16 17 17 17 17 17 17 17 17 18 18 18 19 19 19 19 19 19 18 17 17 17 18 18 17 19 20 21 20 21 21 22 23 24
8 10 11 12 13 14 13 14 13 12 12 12 12 13 16 16 16 16 17 18 18 18 17 18 19 19 20 20 20 19 19 19 18 18 18 18 18 18 18 19 19 20 21 21 21 21 21 22 22
9 10 11 12 13 12 12 13 12 10 10 11 12 14 16 16 16 16 17 18 19 19 19 19 19 20 20 20 19 19 19 18 18 18 18 18 18 18 19 19 19 20 20 20 20 20 21 21 21
10 10 11 11 12 11 12 13 11 10 11 11 12 15 16 17 17 17 18 18 18 20 20 20 19 19 19 19 19 19 17 17 17 18 17 17 18 18 18 19 19 19 20 20 20 20 20 20 21
10 10 10 11 12 12 11 11 11 10 11 12 13 15 16 17 17 18 18 19 18 19 20 19 19 19 19 19 19 18 17 17 18 18 17 18 17 18 18 19 19 19 20 20 20 20 20 21 21
10 11 12 12 12 13 11 10 10 12 13 13 14 15 16 17 17 18 19 20 20 20 20 19 19 18 18 19 19 17 17 18 18 18 19 18 18 18 18 18 18 19 20 20 20 20 20 20 20
11 11 12 13 13 13 13 11 11 12 13 14 15 16 16 17 17 18 19 19 19 19 19 19 19 18 18 19 18 18 18 18 18 19 19 18 18 18 18 18 18 19 19 19 20 20 20 20 20
11 12 12 13 13 13 14 13 12 13 14 15 15 16 16 17 18 18 18 18 18 19 19 19 19 19 19 19 18 18 18 18 19 19 19 18 17 17 17 17 17 17 18 19 19 20 20 20 20
Wind_Direction
188 186 189 191 200 185 214 298 318 306 303 309 311 308 307 310 309 313 313 313 314 314 316 314 306 305 303 301 302 301 299 293 287 281 280 277 275 272 266 262 259 256 254 253 252 251 247 245 246
192 194 195 197 205 215 228 290 309 304 313 311 309 308 308 307 308 310 309 311 316 318 317 316 309 305 302 298 295 296 296 293 285 279 276 273 274 272 266 263 261 259 256 255 254 252 251 249 249
196 198 199 206 219 232 243 272 293 304 310 310 312 313 311 308 307 307 308 309 313 315 314 314 314 308 302 295 290 290 289 289 283 276 272 271 273 270 266 264 262 259 257 255 255 253 252 252 251
193 198 206 215 229 240 269 281 293 297 300 306 311 313 311 307 308 309 309 310 312 312 311 308 308 307 304 299 292 289 287 286 281 274 271 270 272 270 268 264 262 260 257 253 253 253 251 253 253
192 202 210 219 226 252 288 293 296 296 304 306 311 312 311 313 312 308 305 307 308 308 307 307 307 306 300 295 291 285 284 284 280 275 272 272 271 270 268 265 262 260 257 255 254 253 251 252 251
196 205 219 231 227 262 294 299 295 296 301 305 310 311 310 313 308 304 305 305 306 306 303 303 304 300 298 294 287 282 283 283 279 274 271 271 269 269 268 264 262 258 256 255 254 253 252 251 250
201 210 219 222 229 270 291 286 293 296 305 309 311 313 315 312 312 309 308 306 306 306 303 305 302 298 294 291 289 283 282 284 279 275 272 272 272 270 267 263 259 256 254 254 253 251 252 250 249
203 210 216 224 244 268 285 288 294 299 304 308 313 314 314 311 311 312 311 308 308 308 307 306 303 299 293 290 289 286 283 285 279 274 272 273 273 271 269 264 258 256 255 253 253 252 254 253 252
205 207 213 236 255 266 278 281 294 301 306 308 312 315 318 316 314 314 313 310 309 309 310 306 303 303 292 287 287 288 284 286 282 275 271 272 270 268 267 265 260 258 255 254 255 256 257 257 254
210 213 218 236 256 265 277 290 296 301 306 311 312 317 318 318 317 316 314 310 310 311 312 309 305 304 294 287 287 287 285 286 284 281 275 271 269 266 265 263 260 258 257 257 257 258 258 257 255
215 212 221 236 250 258 281 299 301 305 307 312 315 318 322 321 319 318 312 309 311 312 311 310 305 303 299 297 295 292 290 287 286 286 280 274 271 267 266 264 261 259 258 258 259 258 258 256 255
212 212 227 243 245 256 278 301 303 310 315 317 320 320 324 325 322 319 312 311 312 315 316 315 313 310 301 301 301 297 294 289 288 284 278 274 273 271 268 266 264 261 260 258 258 259 259 256 254
219 220 231 238 250 263 285 301 306 313 315 316 319 323 324 328 326 321 319 312 314 315 317 317 316 313 307 302 301 298 295 292 289 282 276 276 277 274 271 268 267 264 264 261 259 259 258 257 255
228 222 226 234 254 264 281 296 306 313 318 318 318 319 323 322 323 320 318 316 317 317 317 317 317 315 309 302 299 295 292 289 285 282 279 278 279 275 271 270 270 270 266 262 261 260 260 259 255
224 220 231 240 250 270 283 298 308 311 314 319 323 321 322 323 324 323 321 319 320 320 319 317 318 315 312 307 300 297 293 289 283 282 282 280 278 277 274 273 271 270 268 266 264 262 261 260 257
229 230 239 244 260 268 283 296 307 311 316 322 325 327 323 325 329 326 324 323 322 322 321 321 323 322 319 313 306 302 298 296 291 287 287 284 280 278 277 275 277 274 272 270 267 264 263 260 258
239 245 243 249 255 264 273 287 299 306 315 321 323 324 325 327 328 325 324 322 323 322 321 319 320 323 322 319 312 306 300 300 296 291 286 286 283 280 278 279 279 276 276 274 271 268 263 260 258
245 248 253 257 253 261 273 285 294 304 313 319 321 321 325 327 327 323 322 324 325 324 321 318 312 315 317 318 315 310 305 301 295 291 287 286 285 283 279 280 279 278 277 276 274 269 265 262 261
244 257 265 268 267 270 278 286 291 301 312 318 322 325 326 328 328 326 324 326 328 326 324 320 319 318 316 315 312 309 308 305 297 292 289 288 285 282 280 279 282 281 278 276 275 271 267 265 262
252 265 269 274 276 272 277 281 288 297 307 312 321 329 331 327 327 324 322 325 325 326 324 321 320 319 317 314 312 309 308 307 302 296 292 290 288 284 285 285 283 282 280 277 277 273 269 265 262
253 271 271 276 272 279 282 281 282 293 300 306 316 322 326 327 327 328 325 326 325 324 322 322 323 320 317 314 313 311 309 308 305 302 300 298 294 289 290 288 287 284 282 280 278 275 269 265 263
259 268 275 279 281 283 279 276 278 287 297 309 312 317 322 326 330 329 328 329 328 326 327 326 324 323 321 318 315 312 310 307 306 306 304 301 297 293 291 289 287 287 286 283 281 276 271 268 266
257 265 272 273 274 274 272 275 281 285 294 310 313 316 320 320 325 328 330 329 326 325 326 326 326 325 323 321 318 312 309 307 306 304 304 304 303 300 297 293 290 289 288 285 283 279 275 271 268
265 269 269 269 269 270 272 278 287 291 295 307 317 318 318 320 323 328 329 329 326 326 326 326 328 327 326 323 321 317 312 309 306 303 303 302 300 299 297 296 293 292 290 287 284 281 278 275 271
270 272 269 267 269 270 273 280 289 290 294 303 310 315 319 323 325 326 328 328 329 329 327 327 326 325 325 325 321 320 318 314 309 305 304 301 300 300 300 297 297 296 293 291 287 284 282 277 274
271 271 269 271 277 272 273 276 288 290 296 306 315 317 318 322 323 322 324 327 327 328 329 328 326 325 326 326 325 323 321 319 316 313 310 306 304 302 301 299 298 298 296 293 288 286 284 281 277
275 272 272 274 281 280 273 275 288 296 300 313 319 317 316 319 321 323 326 326 326 328 329 329 327 326 325 326 326 325 323 321 320 318 314 310 306 303 303 301 300 300 298 295 290 289 287 285 280
278 274 271 274 280 280 284 291 297 303 307 310 312 311 312 315 318 321 325 327 327 327 327 328 328 327 326 326 327 326 326 326 322 320 318 313 307 305 305 305 304 303 302 299 295 293 289 287 284
274 270 269 275 279 279 282 291 299 309 310 307 308 309 310 311 316 319 322 325 325 326 326 325 327 326 324 325 327 327 325 324 324 323 321 316 310 308 308 308 307 307 306 304 302 298 293 290 287
265 267 269 274 277 278 283 290 298 301 306 309 310 312 313 314 318 320 320 324 325 327 327 327 326 327 324 324 325 325 324 324 325 324 323 319 315 313 312 312 313 314 313 310 307 302 297 293 290
Height
5892 5893 5894 5895 5895 5895 5894 5894 5894 5894 5894 5894 5893 5892 5891 5891 5891 5891 5888 5885 5884 5883 5882 5881 5880 5879 5878 5877 5877 5876 5875 5875 5874 5874 5873 5873 5872 5872 5872 5872 5872 5872 5872 5872 5872 5873 5873 5873 5874
5891 5892 5893 5894 5894 5893 5894 5893 5892 5892 5893 5892 5891 5890 5890 5889 5888 5887 5885 5883 5882 5881 5880 5879 5878 5876 5876 5875 5874 5873 5873 5872 5871 5871 5871 5871 5870 5870 5870 5870 5870 5870 5870 5870 5870 5870 5871 5871 5871
5890 5891 5892 5893 5892 5893 5892 5892 5891 5891 5891 5890 5890 5889 5888 5887 5886 5884 5883 5881 5880 5879 5878 5877 5875 5874 5873 5872 5872 5871 5870 5870 5869 5869 5868 5868 5868 5868 5867 5868 5868 5868 5868 5868 5868 5868 5869 5869 5869
5889 5890 5891 5892 5891 5891 5891 5890 5889 5890 5889 5889 5888 5887 5885 5884 5883 5882 5880 5879 5878 5877 5876 5875 5873 5872 5871 5869 5869 5868 5867 5867 5866 5866 5865 5865 5865 5865 5865 5865 5865 5865 5865 5865 5865 5866 5866 5866 5867
5888 5889 5890 5889 5889 5889 5889 5889 5888 5888 5888 5887 5886 5885 5883 5882 5881 5879 5878 5876 5875 5874 5873 5871 5870 5869 5868 5867 5866 5865 5864 5864 5863 5863 5862 5862 5862 5862 5862 5862 5862 5862 5862 5862 5862 5863 5863 5863 5864
5887 5888 5888 5888 5888 5888 5888 5887 5887 5886 5885 5885 5884 5883 5881 5880 5878 5877 5875 5874 5873 5871 5870 5868 5866 5866 5864 5863 5863 5862 5861 5861 5860 5859 5859 5859 5858 5858 5858 5859 5859 5859 5859 5859 5859 5859 5859 5860 5860
5886 5887 5887 5887 5886 5887 5887 5886 5885 5885 5884 5883 5882 5881 5879 5877 5875 5874 5872 5870 5869 5868 5866 5864 5863 5862 5861 5860 5859 5858 5858 5857 5856 5856 5855 5855 5855 5855 5855 5855 5855 5855 5856 5856 5856 5856 5856 5857 5857
5884 5886 5885 5885 5885 5886 5886 5885 5884 5883 5882 5882 5880 5879 5877 5875 5873 5871 5869 5867 5866 5865 5863 5861 5860 5859 5857 5856 5856 5855 5854 5853 5853 5852 5852 5852 5851 5851 5851 5851 5851 5851 5852 5852 5852 5853 5853 5853 5853
5883 5885 5884 5884 5884 5885 5884 5884 5883 5883 5881 5880 5878 5877 5875 5872 5870 5868 5866 5864 5863 5861 5860 5858 5856 5855 5853 5852 5852 5851 5850 5849 5849 5848 5848 5847 5847 5847 5847 5847 5847 5847 5848 5848 5848 5849 5849 5849 5850
5881 5882 5882 5883 5883 5883 5883 5883 5882 5881 5880 5878 5876 5875 5872 5869 5867 5866 5864 5861 5860 5859 5857 5855 5853 5852 5850 5849 5848 5847 5846 5846 5845 5845 5844 5843 5843 5843 5842 5842 5843 5843 5844 5844 5845 5845 5845 5846 5846
5879 5880 5880 5880 5880 5881 5882 5881 5880 5880 5878 5876 5875 5873 5870 5868 5865 5864 5862 5860 5858 5857 5855 5853 5850 5849 5847 5845 5844 5844 5843 5842 5842 5841 5840 5840 5839 5839 5838 5838 5838 5839 5839 5840 5840 5840 5841 5842 5842
5877 5878 5878 5879 5879 5879 5880 5879 5878 5877 5876 5875 5873 5871 5869 5866 5863 5861 5860 5858 5856 5854 5852 5850 5848 5845 5843 5841 5841 5840 5839 5838 5837 5837 5836 5836 5835 5835 5834 5834 5834 5835 5835 5835 5835 5835 5836 5836 5837
5875 5876 5877 5877 5877 5878 5878 5877 5876 5875 5874 5872 5870 5868 5867 5864 5862 5860 5858 5856 5853 5851 5849 5847 5845 5842 5839 5838 5837 5836 5835 5834 5833 5832 5832 5831 5831 5831 5830 5830 5830 5830 5830 5830 5830 5830 5830 5831 5831
5874 5874 5874 5875 5876 5876 5876 5875 5874 5873 5872 5870 5868 5866 5864 5862 5860 5858 5856 5853 5851 5849 5846 5844 5841 5838 5836 5835 5833 5832 5830 5829 5828 5828 5827 5826 5826 5826 5825 5825 5825 5825 5825 5824 5824 5824 5825 5825 5826
5871 5873 5873 5874 5874 5873 5873 5873 5872 5871 5870 5868 5866 5864 5862 5860 5858 5856 5854 5851 5849 5846 5843 5841 5838 5836 5833 5831 5830 5828 5827 5825 5824 5823 5822 5821 5821 5821 5821 5821 5820 5820 5820 5819 5819 5819 5819 5819 5819
5870 5871 5872 5872 5872 5871 5872 5871 5870 5869 5868 5866 5864 5862 5859 5857 5855 5853 5851 5849 5846 5843 5840 5837 5835 5833 5830 5828 5826 5825 5823 5822 5820 5819 5818 5817 5817 5816 5815 5815 5815 5815 5814 5814 5813 5813 5813 5812 5813
5867 5868 5869 5870 5869 5868 5869 5868 5868 5867 5866 5864 5861 5859 5857 5855 5853 5851 5849 5846 5843 5840 5837 5835 5832 5830 5827 5825 5823 5821 5819 5818 5816 5815 5814 5813 5811 5811 5810 5810 5809 5809 5808 5808 5807 5806 5806 5805 5805
5866 5866 5866 5867 5866 5866 5866 5866 5865 5865 5863 5862 5860 5857 5855 5853 5851 5849 5846 5843 5840 5836 5834 5831 5829 5826 5824 5822 5819 5817 5815 5813 5812 5810 5809 5808 5806 5806 5805 5804 5803 5803 5802 5801 5800 5800 5799 5799 5799
5864 5864 5864 5864 5864 5863 5863 5863 5863 5862 5861 5859 5857 5855 5853 5850 5848 5846 5843 5839 5836 5833 5831 5828 5826 5823 5820 5818 5816 5813 5811 5810 5808 5806 5804 5803 5802 5800 5799 5798 5797 5796 5796 5795 5794 5793 5792 5792 5792
5861 5861 5861 5861 5861 5860 5860 5860 5859 5859 5858 5856 5854 5852 5851 5848 5846 5843 5840 5837 5834 5830 5828 5825 5822 5820 5817 5814 5811 5809 5807 5805 5803 5801 5799 5798 5796 5794 5793 5792 5791 5790 5789 5788 5787 5786 5785 5785 5785
5859 5859 5859 5859 5858 5858 5857 5856 5856 5856 5855 5854 5852 5849 5847 5845 5843 5841 5838 5835 5832 5829 5825 5823 5819 5816 5813 5810 5807 5805 5803 5800 5798 5796 5794 5792 5790 5789 5787 5786 5785 5784 5783 5782 5780 5779 5779 5779 5779
5856 5856 5856 5856 5856 5855 5855 5854 5854 5853 5852 5850 5848 5847 5845 5843 5841 5838 5835 5832 5829 5826 5823 5820 5816 5813 5810 5806 5803 5801 5798 5796 5794 5791 5789 5787 5785 5784 5782 5780 5779 5778 5776 5775 5774 5772 5772 5772 5772
5854 5854 5853 5853 5852 5852 5851 5850 5851 5849 5848 5847 5845 5844 5842 5841 5838 5835 5832 5829 5827 5824 5820 5816 5813 5809 5806 5802 5799 5796 5794 5792 5789 5787 5785 5783 5781 5779 5776 5775 5773 5772 5770 5769 5767 5766 5765 5764 5764
5851 5851 5850 5850 5850 5849 5849 5847 5847 5846 5845 5844 5843 5841 5840 5838 5835 5832 5830 5827 5823 5820 5816 5812 5809 5805 5802 5798 5795 5792 5790 5787 5785 5783 5780 5778 5776 5774 5771 5770 5768 5766 5764 5762 5761 5759 5758 5757 5757
5849 5848 5848 5847 5847 5846 5846 5844 5844 5843 5842 5841 5840 5838 5836 5834 5832 5829 5827 5824 5820 5816 5812 5808 5805 5802 5798 5795 5791 5788 5785 5783 5780 5778 5776 5773 5771 5769 5767 5764 5762 5760 5758 5756 5755 5753 5752 5750 5750
5846 5846 5846 5845 5844 5843 5842 5841 5841 5840 5839 5838 5837 5835 5833 5831 5829 5826 5824 5820 5817 5813 5808 5805 5802 5798 5795 5791 5788 5784 5781 5778 5776 5773 5771 5768 5766 5764 5761 5759 5757 5755 5752 5751 5749 5747 5745 5744 5743
5842 5842 5842 5841 5840 5840 5839 5839 5838 5837 5836 5835 5833 5832 5830 5828 5825 5823 5820 5817 5813 5809 5806 5802 5798 5795 5791 5788 5784 5781 5778 5775 5772 5769 5766 5764 5761 5759 5756 5754 5752 5749 5747 5745 5743 5741 5739 5738 5736
5839 5839 5838 5838 5837 5836 5836 5836 5836 5835 5833 5832 5830 5829 5827 5824 5822 5819 5816 5813 5810 5806 5802 5799 5795 5791 5788 5785 5781 5777 5774 5771 5768 5765 5762 5759 5757 5754 5752 5749 5747 5744 5742 5739 5737 5735 5733 5731 5730
5836 5836 5835 5834 5834 5834 5833 5835 5833 5831 5830 5829 5827 5825 5823 5821 5819 5816 5813 5810 5806 5803 5799 5796 5792 5789 5785 5781 5778 5774 5771 5768 5765 5762 5758 5755 5752 5750 5747 5745 5742 5740 5737 5734 5731 5729 5727 5725 5724
5833 5833 5832 5832 5831 5831 5830 5833 5829 5828 5827 5825 5824 5821 5819 5817 5814 5812 5809 5806 5803 5799 5796 5792 5789 5785 5782 5778 5775 5771 5768 5765 5762 5758 5755 5752 5749 5746 5743 5741 5738 5735 5732 5729 5727 5724 5722 5719 5717